Volver al catálogo

VESSELSAT 1

ActivoComunicacionesLEO
NORAD 37840·PAYLOAD·🇱🇺 Luxembourg

Lanzado Oct 12, 2011 desde Satish Dhawan Space Centre

Loading…

Próximos Pases (próximas 24 horas)

TLE

ActualizadoSource: Space-Track

Época: Sep 14, 2026, 01:16 UTC

1 37840U 11058C   26257.05343558  .00000335  00000-0  38235-4 0  9998
2 37840  19.9609 227.3006 0013769 139.1131 221.0308 14.11448155770502

Sigue VESSELSAT 1 en tiempo real con AllMySat

Download on the App Store